1. 645 NICOLAS DEMONTY 1 Deb H VC PESANT 0:13:42.6
2. 657 MANU DAMAN 1 Garcons1215 CABW 0:14:05.0
3. 801 HUGO MARX 2 Garcons1215   0:14:32.3
4. 106 LUCAS GARBACZ 3 Garcons1215   0:14:59.3
5. 806 GEORGE SZALO 4 Garcons1215 SERAING 0:15:52.5
6. 873 Denny MARICHA 5 Garcons1215 St Jacques 0:16:05.4
7. 884 Maxime RANDAXHE 6 Garcons1215 St Jacques 0:16:24.3
8. 849 Francois LECOQ 7 Garcons1215 St Jacques 0:16:28.7
9. 647 GUY DANGRIAUX 2 Deb H   0:16:29.1
10. 893 Quentin MICHELS 8 Garcons1215 St Jacques 0:16:36.5
11. 792 ARTHUR WARNOTTE 9 Garcons1215   0:16:44.1
12. 802 ROMAN DE WINTER 10 Garcons1215   0:16:57.1
13. 797 ANDY GAUTHIER 11 Garcons1215   0:16:58.3
14. 794 BAPTISTE JOURET 12 Garcons1215   0:17:01.1
15. 646 BENJAMIN DI CARIO       0:17:02.9
16. 201 MAXIME PIEDBOEUF 13 Garcons1215 CSM 0:17:03.6
17. 294 LOIC HOUBIE 14 Garcons1215 CSM 0:17:08.6
18. 603 ALEX ROSCA 3 Deb H   0:17:17.0
19. 845 Julien DAMAS 4 Deb H St Jacques 0:17:58.8
20. 826 IDJOUDINE DIALLO 5 Deb H   0:18:12.7
21. 301 DAMIEN MARINO 15 Garcons1215   0:18:13.4
22. 798 OCEANE GAUTHIER 1 Filles1215   0:18:21.5
23. 649 HELENE DAMAN 1 Deb F VORTAL 0:18:42.9
24. 854 Vincent GULINO 16 Garcons1215 St Jacques 0:19:00.3
25. 640 LUCAS HOFFMAN 17 Garcons1215   0:19:00.5
26. 812 BAPTISTE COURARD 18 Garcons1215   0:19:02.7
27. 57 PATRICK COUDIJZER 6 Deb H   0:19:25.1
28. 828 LOUIS SPINNEUX 19 Garcons1215   0:19:30.1
29. 205 AURORE RIGO 2 Filles1215   0:19:37.9
30. 606 ALEXANDRE LAMBION 7 Deb H   0:19:54.8
31. 600 ESTELLE LAURENT 3 Filles1215   0:19:56.3
32. 661 FREDERIC THYSSEN 20 Garcons1215   0:20:13.4
33. 58 ARNAUD COUDIJZER 21 Garcons1215 CSM 0:20:14.2
34. 604 CLARISSE LAURENT       0:20:15.5
35. 805 ANNE DE CANT 2 Deb F   0:20:44.9
36. 660 CELIA BARON 4 Filles1215 HAUTE-FAUGNE 0:21:02.6
37. 880 Alix CLERFAYS 5 Filles1215 St Jacques 0:21:12.3
38. 882 Fiona PEZZETTI 6 Filles1215 St Jacques 0:21:12.4
39. 63 THOMAS CRESSON 22 Garcons1215 HERVE 0:21:28.2
40. 642 MAXIME PREGALDIEN 23 Garcons1215   0:21:33.5
41. 105 EVA GARBACZ 7 Filles1215   0:21:47.0
42. 863 Alicia KEMPENEERS 3 Deb F St Jacques 0:22:08.4
43. 605 CYRIL ALBERTAN 8 Deb H   0:22:13.1
44. 808 ADRIEN DE CANT 9 Deb H   0:22:26.9
45. 610 ANTOINE DELAMOTTE 10 Deb H   0:22:59.0
46. 104 ANDR� GARBACZ 11 Deb H   0:23:02.7
47. 871 Widad FINNICH 8 Filles1215 St Jacques 0:23:17.0
48. 883 Serge BRUSTEN 12 Deb H St Jacques 0:23:19.5
49. 862 Armille KEMPENEERS 13 Deb H St Jacques 0:23:36.1
50. 677 TEA CORTES       0:23:42.0
51. 609 CORENTIN VANHAUN 14 Deb H   0:23:59.3
52. 886 Andreas DELVALLE 24 Garcons1215 St Jacques 0:24:22.7
53. 896 Pablo Freches 25 Garcons1215 DB P6 B 0:25:05.8
54. 872 Oceane DIBI 9 Filles1215 St Jacques 0:25:06.8
55. 807 AYLIN BEZER 4 Deb F   0:25:15.3
56. 870 Louis BRUSTEN 26 Garcons1215 St Jacques 0:25:20.0
57. 855 Carla GULINO 10 Filles1215 St Jacques 0:25:58.6
58. 853 Carine FUMAL 5 Deb F St Jacques 0:25:59.2
59. 888 Binta DIALLO 11 Filles1215 St Jacques 0:26:07.5
60. 601 GUILLAUME MALI 15 Deb H   0:26:29.0
61. 793 ANNE TOURNAY 6 Deb F   0:27:11.2
62. 851 Samuel VANDYCK 27 Garcons1215 St Jacques 0:27:11.4
63. 881 Heloise DEFAWE 12 Filles1215 St Jacques 0:27:14.0
64. 795 JEAN-FRANCOISE NIVART 7 Deb F   0:27:15.9
65. 885 Fanny DEVILLERS 13 Filles1215 St Jacques 0:27:18.6
66. 650 CHRISTINE MARTINIV 8 Deb F   0:27:19.8
67. 796 ALICE CLARISSE 9 Deb F   0:27:19.9
68. 874 Moira MARISCHAL 14 Filles1215 St Jacques 0:27:24.5
69. 680 LAURA LEBRUN 15 Filles1215   0:27:47.8
70. 879 Hawaou DIALLO 28 Garcons1215 St Jacques 0:27:50.1
71. 662 ARIELLE TANESE 10 Deb F DRA 0:27:59.3
72. 838 CAROLINA PALMA 11 Deb F   0:28:00.2
73. 898 Pablo Vaessen Palma Duran 29 Garcons1215 DB P6 A 0:28:00.3
74. 868 Aissatou BARRY 16 Filles1215 St Jacques 0:28:12.8
75. 607 STEVEN BOULANGER 16 Deb H   0:28:30.3
76. 608 ARTHUR VANDEWEYER 17 Deb H   0:28:30.5
77. 858 Julie GRANOTOVOWICZ 12 Deb F St Jacques 0:30:58.2
78. 850 Cleo JOLIET 13 Deb F St Jacques 0:30:59.0
79. 891 Luca PIERRET 18 Deb H St Jacques 0:30:59.1
80. 668 MELANIE SANCHEZ 14 Deb F   0:31:48.8
81. 875 Andrea HATCHI 30 Garcons1215 St Jacques 0:32:30.1
82. 869 Mariama BARRY 17 Filles1215 St Jacques 0:32:30.3
83. 889 Veronique MEYERS 15 Deb F St Jacques 0:33:25.6
84. 890 Jenny PIERRET 18 Filles1215 St Jacques 0:33:25.9
Joomla 3.0 Templates - by Joomlage.com